Location: ????????
(55.6189°N, 38.3031°E)
Time: 00:37:57
(UTC+00:00)

Cosmos 2112 Rocket - Pass Details

Date: 15 November 2019
Orbit: 755 x 788 km, 74.1° (Epoch: 15 December)

Event Time Altitude Azimuth Distance (km) Brightness Sun altitude
Exits shadow 02:20:00 48° 238° (WSW) 1,021 4.2 -22.3°
Drops below altitude 10° 02:24:44 10° 179° (S) 2,338 6.5 -21.6°
Sets 02:27:11 0° 174° (S) 3,265 7.4 -21.3°
